{"data":{"norad_id":40908,"intl_designator":"2015-049K","name":"LILACSAT-2","alt_names":[],"object_type":"PAYLOAD","status":"ACTIVE","operator":null,"country":"PRC","launch_date":"2015-09-19","launch_site_code":"TAISC","launch_vehicle":null,"mission":null,"orbit_class":"UNKNOWN","rcs_meters":0.095,"size_class":null,"mass_kg":null,"dimensions":null,"purposes":["comms"],"wikipedia_slug":null,"has_3d_model":false,"image_url":null,"decayed_at":null,"tle_current":{"epoch":"2026-09-20T04:27:01.978848Z","epoch_age_seconds":41458,"freshness":"FRESH","line1":"1 40908U 15049K   26263.18543957  .00013422  00000+0  20581-3 0  9991","line2":"2 40908  97.4557 303.7944 0004614 259.0623 101.0112 15.54434736610490","mean_motion":15.54434736,"eccentricity":0.0004614,"inclination_deg":97.4557,"raan_deg":303.7944,"arg_perigee_deg":259.0623,"mean_anomaly_deg":101.0112,"bstar":0.00020581,"rev_number":61049,"period_min":92.638176865857,"perigee_km":400.66709595754,"apogee_km":406.9254639883,"semimajor_km":6781.9332799729,"source":"CELESTRAK","updated_at":"2026-09-20T09:00:45.233941Z"}}}